Skip Page Navigation
NASA JPL Caltech
NASA Logo - Jet Propulsion Laboratory + View the NASA Portal
+ Center for Near-Earth Object Studies
JPL Home Earth Solar System Stars & Galaxies Technology
JPL Solar System Dynamics
BODIES ORBITS EPHEMERIDES TOOLS PHYSICAL DATA DISCOVERY FAQ SITE MAP

Significant website upgrade scheduled for September 27. More details available here.

JPL Small-Body Database Browser
Search: [ help ]  
172593 Vorosmarty (2003 VM)
Classification: Main-belt Asteroid          SPK-ID: 2172593
Ephemeris | Orbit Diagram | Orbital Elements | Mission Design | Physical Parameters | Discovery Circumstances ]

[ show orbit diagram ]
Orbital Elements at Epoch 2459396.5 (2021-Jul-01.0) TDB
Reference: JPL 17 (heliocentric ecliptic J2000)
 Element Value Uncertainty (1-sigma)   Units 
e .1297786656593345 5.7631e-08  
a 2.628648913850203 1.9845e-08 au
q 2.287506365323865 1.4564e-07 au
i 14.63296352979548 5.4192e-06 deg
node 52.64199799269636 2.2422e-05 deg
peri 342.9385759052543 3.2936e-05 deg
M 97.84914667492964 2.4054e-05 deg
tp 2458973.391406433447
(2020-May-03.89140643)
0.00010337 TDB
period 1556.67268300241
4.26
1.7629e-05
4.827e-08
d
yr
n .231262489495001 2.6189e-09 deg/d
Q 2.969791462376541 2.2421e-08 au
  Orbit Determination Parameters
   # obs. used (total)      539  
   data-arc span      7253 days (19.86 yr)  
   first obs. used      2001-05-22  
   last obs. used      2021-03-31  
   planetary ephem.      DE441  
   SB-pert. ephem.      SB441-N16  
   condition code      0  
   norm. resid. RMS      .5201  
   source      ORB  
   producer      Otto Matic  
   solution date      2021-Jul-09 02:24:36  

Additional Information
 Earth MOID = 1.29865 au 
 Jupiter MOID = 2.44845 au 
 T_jup = 3.343 
[ show covariance matrix ]

Ephemeris | Orbit Diagram | Orbital Elements | Mission Design | Physical Parameters | Discovery Circumstances ]

Physical Parameter Table
Parameter Symbol Value Units Sigma Reference Notes
absolute magnitude H 15.95   n/a MPCxxxxx  

172593 Vörösmarty           Discovered 2003 Nov. 5 by K. Sarneczky and S. Meszaros at Piszkesteto.
Mihály Vörösmarty (1800-1855) was a poet and dramatist, one of the greatest Hungarian romanticists, and a full member of the Hungarian Academy of Science. His poetry Szózat became a second national anthem, and Csongor és Tünde is one of the best Hungarian plays of the nineteenth century.
NOTE: some special characters may not display properly (any characters within {} are an attempt to place the proper accent above a character)
Reference: MPC batch dated 2018-10-26Last Updated: 2019-04-09
Ephemeris | Orbit Diagram | Orbital Elements | Mission Design | Physical Parameters | Discovery Circumstances ]
ABOUT SSD CREDITS/AWARDS PRIVACY/COPYRIGHT GLOSSARY LINKS
FirstGov 2021-Sep-22 09:19 UT
(server date/time)  
NASA Home Page
Site Manager:   Ryan S. Park
Webmaster  Alan B. Chamberlin